Hourly Data Report for September 23, 2017

All times are specified in Local Standard Time (LST). Add 1 hour to adjust for Daylight Saving Time where and when it is observed.

PENTICTON A
BRITISH COLUMBIA

49°27'45.000" N
119°36'08.000" W
344.40 m
1126146
71889
YYF

Download Data

Hourly Data (September 2017)
Hourly Data Report for September 23, 2017
Temp Definition
°C
Dew Point Temp Definition
°C
Rel Hum Definition
%
Wind Dir Definition
10's deg

Wind Spd Definition
km/h
Visibility Definition
km
Stn Press Definition
kPa
Hmdx Definition


Wind Chill Definition


Weather Definition


TIME
00:00 Legend Double Dagger 10.6 4.0 64 36 2 24.1 97.46     LegendNANA
01:00 Legend Double Dagger 9.1 4.3 72 4 4 24.1 97.45     Cloudy
02:00 Legend Double Dagger 9.8 4.7 70 36 2 24.1 97.47     LegendNANA
03:00 Legend Double Dagger 9.4 4.3 70 36 6 24.1 97.50     LegendNANA
04:00 Legend Double Dagger 9.6 4.3 70 36 4 24.1 97.52     Cloudy
05:00 Legend Double Dagger 8.9 4.1 72 5 4 24.1 97.55     LegendNANA
06:00 Legend Double Dagger 8.9 5.0 76 31 3 24.1 97.59     LegendNANA
07:00 Legend Double Dagger 9.7 6.1 78 0 1 24.1 97.64     Cloudy
08:00 Legend Double Dagger 12.6 5.9 64 18 7 24.1 97.70     LegendNANA
09:00 Legend Double Dagger 13.4 5.3 58 19 11 24.1 97.73     LegendNANA
10:00 Legend Double Dagger 14.7 4.7 51 19 7 24.1 97.74     Cloudy
11:00 Legend Double Dagger 15.0 4.7 50 15 5 24.1 97.73     LegendNANA
12:00 Legend Double Dagger 16.0 3.4 43 16 7 24.1 97.72     LegendNANA
13:00 Legend Double Dagger 18.7 4.7 39 19 7 24.1 97.68     Mostly Cloudy
14:00 Legend Double Dagger 19.0 4.3 38 18 8 24.1 97.66     LegendNANA
15:00 Legend Double Dagger 16.9 6.0 48 1 17 24.1 97.67     LegendNANA
16:00 Legend Double Dagger 16.5 6.0 50 35 11 24.1 97.69     Mostly Cloudy
17:00 Legend Double Dagger 16.2 6.8 53 35 5 24.1 97.68     LegendNANA
18:00 Legend Double Dagger 14.6 6.4 57 31 5 24.1 97.70     LegendNANA
19:00 Legend Double Dagger 11.3 5.9 69 36 1 24.1 97.75     Mostly Cloudy
20:00 Legend Double Dagger 9.6 4.0 68 1 8 24.1 97.79     LegendNANA
21:00 Legend Double Dagger 9.2 3.6 68 34 9 24.1 97.82     LegendNANA
22:00 Legend Double Dagger 8.1 3.4 72 35 9 24.1 97.87     Mainly Clear
23:00 Legend Double Dagger 6.2 3.0 79   0 24.1 97.89     LegendNANA

Notes on Data Quality.

Legend

  • E = Estimated
  • M = Missing
  • NA = Not Available
  • ‡ = Partner data that is not subject to review by the National Climate Archives
Date modified: